W3EJE-13 Weather Reports


time (UTC)temp
C
wind
direction
speed
KPH
gust
KPH
rain 1hr
cm
rain 24hr
cm
rain mn
cm
humidity
%
barometer
mb
20260509185727 15 265 4.8 8.0 0.00 0.10 0.10 73 1011.3
20260509185223 15 249 3.2 3.2 0.00 0.10 0.10 73 1011.1
20260509184721 15 313 6.4 8.0 0.00 0.10 0.10 73 1011.1
20260509184218 15 252 1.6 3.2 0.00 0.10 0.10 73 1011.3
20260509183714 15 243 1.6 1.6 0.00 0.10 0.10 74 1011.2
20260509183209 15 210 0.0 0.0 0.00 0.10 0.10 74 1011.2
20260509182705 15 255 1.6 3.2 0.00 0.10 0.10 74 1011.2
20260509182203 15 276 4.8 4.8 0.00 0.10 0.10 75 1011.3
20260509181700 15 257 4.8 4.8 0.00 0.10 0.10 77 1011.2
20260509181158 14 305 4.8 4.8 0.00 0.10 0.10 77 1011.5
20260509180654 14 236 1.6 3.2 0.00 0.10 0.10 77 1011.2
20260509180150 14 256 3.2 3.2 0.00 0.10 0.10 78 1011.1
20260509175646 13 258 0.0 1.6 0.00 0.10 0.10 77 1011.2
20260509175144 13 258 1.6 3.2 0.00 0.10 0.10 78 1011.4
20260509174639 13 265 1.6 1.6 0.00 0.10 0.10 78 1011.5
20260509174134 13 317 8.0 11.3 0.00 0.10 0.10 79 1011.7
20260509173630 13 286 4.8 4.8 0.00 0.10 0.10 80 1011.4
20260509173126 13 314 4.8 8.0 0.00 0.10 0.10 81 1011.3
20260509172623 13 298 6.4 8.0 0.00 0.10 0.10 84 1011.4
20260509172119 13 167 1.6 1.6 0.00 0.10 0.10 84 1011.6
20260509171615 13 251 3.2 3.2 0.00 0.10 0.10 84 1011.6
20260509171111 13 186 1.6 3.2 0.00 0.10 0.10 84 1011.6
20260509170608 13 292 6.4 8.0 0.00 0.10 0.10 85 1011.7
20260509170104 13 246 0.0 0.0 0.00 0.10 0.10 88 1011.6
20260509165602 12 198 0.0 0.0 0.00 0.10 0.10 88 1011.5
20260509165058 12 256 0.0 1.6 0.00 0.10 0.10 89 1011.7
20260509164554 12 258 0.0 1.6 0.00 0.10 0.10 88 1011.7
20260509164050 12 203 1.6 3.2 0.00 0.10 0.10 89 1011.6
20260509163548 12 229 1.6 3.2 0.00 0.10 0.10 88 1011.7
20260509163044 13 201 0.0 1.6 0.00 0.10 0.10 90 1011.8
20260509162541 12 249 1.6 1.6 0.00 0.10 0.10 88 1011.9
20260509162036 13 228 0.0 1.6 0.00 0.10 0.10 90 1012.0
20260509161533 12 253 4.8 4.8 0.00 0.10 0.10 91 1012.1
20260509161028 12 248 3.2 3.2 0.00 0.10 0.10 92 1011.9
20260509160524 12 251 1.6 1.6 0.00 0.10 0.10 93 1012.3
20260509160020 11 263 1.6 1.6 0.00 0.10 0.10 93 1011.9
20260509155516 11 251 0.0 0.0 0.00 0.10 0.10 94 1012.1
20260509155012 11 252 0.0 0.0 0.00 0.10 0.10 94 1012.4
20260509154509 11 258 1.6 1.6 0.00 0.10 0.10 95 1012.4
20260509154007 11 281 1.6 1.6 0.00 0.10 0.10 94 1012.5
20260509153503 11 247 0.0 0.0 0.13 0.10 0.10 94 1012.5
20260509153000 11 269 1.6 1.6 0.13 0.10 0.10 93 1012.3
20260509152455 11 259 0.0 1.6 0.00 0.08 0.08 93 1012.4
20260509151953 11 269 4.8 4.8 0.00 0.08 0.08 93 1012.5
20260509151449 11 267 1.6 3.2 0.00 0.08 0.08 94 1012.4
20260509150947 11 251 1.6 1.6 0.00 0.08 0.08 94 1012.1
20260509150444 11 255 1.6 3.2 0.00 0.08 0.08 94 1012.1
20260509145942 11 243 0.0 0.0 0.00 0.08 0.08 94 1012.1
20260509145437 11 243 0.0 1.6 0.00 0.08 0.08 94 1012.1
20260509144933 11 248 0.0 0.0 0.00 0.08 0.08 95 1012.3
20260509144430 11 247 0.0 1.6 0.00 0.08 0.08 95 1012.1
20260509143927 11 252 1.6 3.2 0.00 0.08 0.08 96 1012.1
20260509143424 11 245 0.0 0.0 0.00 0.08 0.08 96 1012.1
20260509142920 11 238 0.0 0.0 0.00 0.08 0.08 96 1012.0
20260509142417 11 251 0.0 0.0 0.00 0.08 0.08 97 1012.3
20260509141913 10 229 1.6 1.6 0.00 0.08 0.08 97 1012.4
20260509141410 11 211 0.0 0.0 0.00 0.08 0.08 98 1012.0
20260509140907 10 239 0.0 0.0 0.00 0.08 0.08 99 1012.4
20260509140403 10 261 1.6 1.6 0.00 0.08 0.08 99 1012.3
20260509135901 10 251 0.0 0.0 0.00 0.08 0.08 99 1012.5
20260509135358 10 238 0.0 0.0 0.00 0.08 0.08 99 1012.6
20260509134856 10 223 0.0 0.0 0.00 0.08 0.08 99 1012.6
20260509134353 10 245 0.0 0.0 0.00 0.08 0.08 99 1012.7
20260509133850 10 240 0.0 0.0 0.00 0.08 0.08 99 1012.8
20260509133346 10 236 0.0 0.0 0.00 0.08 0.08 99 1012.7
20260509132845 10 249 0.0 1.6 0.00 0.08 0.08 99 1012.8
20260509132343 10 250 0.0 0.0 0.18 0.08 0.08 99 1012.7
20260509131840 10 248 1.6 1.6 0.18 0.08 0.08 99 1012.8
20260509131336 10 249 0.0 0.0 0.00 0.05 0.05 99 1012.8
20260509130833 10 249 0.0 0.0 0.13 0.05 0.05 99 1012.5
20260509130329 10 245 0.0 0.0 0.13 0.05 0.05 99 1012.9
20260509125826 10 239 0.0 0.0 0.00 0.03 0.03 99 1012.7
20260509125322 10 249 1.6 1.6 0.00 0.03 0.03 98 1012.7
20260509124818 10 228 0.0 0.0 0.00 0.03 0.03 98 1012.4
20260509124315 10 234 0.0 0.0 0.00 0.03 0.03 98 1012.7
20260509123814 10 236 0.0 0.0 0.18 0.03 0.03 98 1012.5
20260509123310 10 225 0.0 0.0 0.18 0.03 0.03 98 1012.6
20260509122806 10 239 0.0 0.0 0.00 0.00 0.00 98 1012.8
20260509122306 10 279 1.6 1.6 0.00 0.00 0.00 98 1012.6
20260509121800 10 246 0.0 0.0 0.00 0.00 0.00 98 1012.7
20260509121257 10 231 1.6 1.6 0.00 0.00 0.00 98 1012.9
20260509120755 10 249 1.6 1.6 0.00 0.00 0.00 98 1012.8
20260509120253 10 251 1.6 1.6 0.00 0.00 0.00 99 1012.7
20260509115751 10 253 1.6 3.2 0.00 0.00 0.00 98 1012.8
20260509115247 9 242 0.0 0.0 0.00 0.00 0.00 99 1012.6
20260509114745 9 268 1.6 3.2 0.00 0.00 0.00 99 1012.6
20260509114244 9 246 0.0 1.6 0.00 0.00 0.00 99 1012.6
20260509113742 9 257 1.6 1.6 0.00 0.00 0.00 99 1012.5
20260509113239 9 256 1.6 1.6 0.00 0.00 0.00 99 1012.5
20260509112736 9 265 1.6 3.2 0.00 0.00 0.00 98 1012.7
20260509112233 10 263 1.6 1.6 0.00 0.00 0.00 97 1012.7
20260509111730 10 251 0.0 0.0 0.00 0.00 0.00 96 1012.5
20260509111227 9 245 0.0 0.0 0.00 0.00 0.00 95 1012.6
20260509110724 9 244 0.0 0.0 0.00 0.00 0.00 95 1012.6
20260509110221 9 245 0.0 0.0 0.00 0.00 0.00 95 1012.6
20260509105719 9 224 0.0 0.0 0.00 0.00 0.00 95 1012.7
20260509105216 9 223 0.0 1.6 0.00 0.00 0.00 95 1012.8
20260509104713 9 253 0.0 0.0 0.00 0.00 0.00 95 1012.9
20260509104210 9 246 0.0 0.0 0.00 0.00 0.00 94 1012.9
20260509103708 9 247 0.0 0.0 0.00 0.00 0.00 94 1012.9
20260509103205 10 250 0.0 1.6 0.00 0.00 0.00 93 1012.9
20260509102704 10 245 0.0 0.0 0.00 0.00 0.00 93 1012.9
20260509102200 10 248 0.0 0.0 0.00 0.00 0.00 92 1012.9
20260509101656 10 248 1.6 3.2 0.00 0.00 0.00 91 1012.7
20260509101153 10 257 1.6 1.6 0.00 0.00 0.00 91 1013.0
20260509100650 10 253 3.2 3.2 0.00 0.00 0.00 91 1012.9
20260509100147 10 296 3.2 3.2 0.00 0.00 0.00 90 1013.0
20260509095644 10 260 6.4 8.0 0.00 0.00 0.00 90 1013.0
20260509095141 10 249 4.8 8.0 0.00 0.00 0.00 89 1012.9
20260509094637 10 285 6.4 9.7 0.00 0.00 0.00 89 1013.0
20260509094135 10 321 12.9 14.5 0.00 0.00 0.00 87 1013.1
20260509093633 11 284 8.0 9.7 0.00 0.00 0.00 86 1013.1
20260509093130 11 326 9.7 11.3 0.00 0.00 0.00 85 1012.7
20260509092628 11 269 4.8 4.8 0.00 0.00 0.00 83 1012.9
20260509092126 10 246 3.2 3.2 0.00 0.00 0.00 85 1013.0
20260509091624 10 239 0.0 0.0 0.00 0.00 0.00 87 1012.7
20260509091120 9 283 0.0 0.0 0.00 0.00 0.00 88 1012.6
20260509090618 8 259 0.0 0.0 0.00 0.00 0.00 91 1012.5
20260509090115 8 251 0.0 1.6 0.00 0.00 0.00 93 1012.5
20260509085612 8 255 0.0 0.0 0.00 0.00 0.00 95 1012.4
20260509085108 8 252 0.0 0.0 0.00 0.00 0.00 96 1012.4
20260509084605 8 248 0.0 0.0 0.00 0.00 0.00 97 1012.3
20260509084102 8 253 0.0 0.0 0.00 0.00 0.00 97 1012.3
20260509083600 8 223 0.0 0.0 0.00 0.00 0.00 97 1012.1
20260509083056 7 223 0.0 0.0 0.00 0.00 0.00 98 1012.4
20260509082554 7 223 0.0 0.0 0.00 0.00 0.00 98 1012.5
20260509082050 7 223 0.0 0.0 0.00 0.00 0.00 98 1012.1
20260509081547 7 223 0.0 0.0 0.00 0.00 0.00 98 1012.3
20260509081044 7 223 0.0 0.0 0.00 0.00 0.00 98 1012.0
20260509080542 7 223 0.0 0.0 0.00 0.00 0.00 98 1011.9
20260509080040 7 223 0.0 0.0 0.00 0.00 0.00 98 1012.0
20260509075537 7 223 0.0 0.0 0.00 0.00 0.00 98 1012.0
20260509075035 7 223 0.0 0.0 0.00 0.00 0.00 98 1012.1
20260509074532 7 222 0.0 0.0 0.00 0.00 0.00 98 1012.0
20260509074028 7 222 0.0 0.0 0.00 0.00 0.00 98 1012.3
20260509073525 7 221 0.0 0.0 0.00 0.00 0.00 98 1012.0
20260509073021 7 243 0.0 0.0 0.00 0.00 0.00 98 1012.1
20260509072518 7 245 0.0 0.0 0.00 0.00 0.00 98 1012.0
20260509072015 7 221 0.0 0.0 0.00 0.00 0.00 97 1011.9
20260509071512 7 221 0.0 0.0 0.00 0.00 0.00 97 1012.0
20260509071009 7 221 0.0 0.0 0.00 0.00 0.00 97 1012.0
20260509070506 7 221 0.0 0.0 0.00 0.00 0.00 97 1012.0
20260509070002 7 221 0.0 0.0 0.00 0.00 0.00 96 1011.7
20260509065458 7 221 0.0 0.0 0.00 0.00 0.00 95 1012.0
20260509064954 7 221 0.0 0.0 0.00 0.00 0.00 95 1012.0
20260509064452 7 221 0.0 0.0 0.00 0.00 0.00 95 1011.9
20260509063950 7 221 0.0 0.0 0.00 0.00 0.00 94 1011.9
20260509063445 8 221 0.0 0.0 0.00 0.00 0.00 94 1011.9
20260509062942 8 221 0.0 0.0 0.00 0.00 0.00 94 1012.0
20260509062439 8 221 0.0 0.0 0.00 0.00 0.00 93 1012.3
20260509061937 8 221 0.0 0.0 0.00 0.00 0.00 92 1012.3
20260509061434 8 221 0.0 0.0 0.00 0.00 0.00 92 1012.3
20260509060931 8 221 0.0 1.6 0.00 0.00 0.00 92 1012.5
20260509060429 8 223 0.0 0.0 0.00 0.00 0.00 92 1012.5
20260509055924 8 223 0.0 0.0 0.00 0.00 0.00 92 1012.6
20260509055419 8 223 0.0 0.0 0.00 0.00 0.00 91 1012.7
20260509054916 8 223 0.0 0.0 0.00 0.00 0.00 91 1012.9
20260509054413 8 224 0.0 0.0 0.00 0.00 0.00 91 1012.9
20260509053911 9 224 0.0 0.0 0.00 0.00 0.00 91 1013.0
20260509053409 9 224 0.0 0.0 0.00 0.00 0.00 92 1012.9
20260509052906 9 224 0.0 0.0 0.00 0.00 0.00 92 1013.3
20260509052403 9 224 0.0 0.0 0.00 0.00 0.00 92 1013.2
20260509051901 9 224 0.0 0.0 0.00 0.00 0.00 91 1012.9
20260509051359 10 224 0.0 0.0 0.00 0.00 0.00 91 1013.1
20260509050856 10 224 0.0 0.0 0.00 0.00 0.00 91 1013.1
20260509050352 10 224 0.0 0.0 0.00 0.00 0.00 90 1013.2
20260509045849 10 224 0.0 0.0 0.00 0.00 0.00 89 1013.0
20260509045346 10 224 0.0 0.0 0.00 0.00 0.00 89 1013.3
20260509044843 10 224 0.0 0.0 0.00 0.00 0.00 88 1013.1
20260509044341 10 224 0.0 0.0 0.00 0.00 0.00 88 1013.3
20260509043837 10 224 0.0 0.0 0.00 0.00 0.00 88 1013.3
20260509043333 10 224 0.0 0.0 0.00 0.00 0.00 88 1013.1
20260509042829 10 224 0.0 0.0 0.00 0.00 0.00 88 1013.3
20260509042326 10 224 0.0 0.0 0.00 0.00 0.00 88 1013.1
20260509041823 10 224 0.0 0.0 0.00 0.00 0.00 88 1013.4
20260509041320 10 224 0.0 0.0 0.00 0.00 0.00 88 1013.4
20260509040818 10 226 0.0 0.0 0.00 0.00 0.00 88 1013.3
20260509040315 10 226 0.0 0.0 0.00 0.00 0.00 88 1013.4
20260509035812 10 226 0.0 0.0 0.00 0.00 0.00 88 1013.4
20260509035309 10 226 0.0 0.0 0.00 0.00 0.00 88 1013.4
20260509034805 10 225 0.0 0.0 0.00 0.00 0.00 87 1013.1
20260509034303 10 225 0.0 0.0 0.00 0.00 0.00 87 1013.3
20260509033800 10 225 0.0 0.0 0.00 0.00 0.00 86 1013.4
20260509033257 10 225 0.0 0.0 0.00 0.00 0.00 85 1013.1
20260509032754 10 225 0.0 0.0 0.00 0.00 0.00 85 1013.3
20260509032251 10 225 0.0 0.0 0.00 0.00 0.00 85 1013.3
20260509031748 10 226 0.0 0.0 0.00 0.00 0.00 85 1013.3
20260509031246 10 227 0.0 0.0 0.00 0.00 0.00 85 1013.3
20260509030744 10 227 0.0 0.0 0.00 0.00 0.00 85 1013.5
20260509030241 10 227 0.0 0.0 0.00 0.00 0.00 85 1013.6
20260509025738 10 227 0.0 0.0 0.00 0.00 0.00 84 1013.4
20260509025233 10 227 0.0 0.0 0.00 0.00 0.00 84 1013.3
20260509024728 10 227 0.0 0.0 0.00 0.00 0.00 84 1013.3
20260509024224 10 227 0.0 0.0 0.00 0.00 0.00 84 1013.4
20260509023722 10 227 0.0 0.0 0.00 0.00 0.00 83 1013.7
20260509023219 11 227 0.0 0.0 0.00 0.00 0.00 82 1013.5
20260509022715 11 227 0.0 0.0 0.00 0.00 0.00 81 1013.5
20260509022213 11 227 0.0 0.0 0.00 0.00 0.00 80 1013.5
20260509021710 11 227 0.0 0.0 0.00 0.00 0.00 80 1013.7
20260509021208 11 227 0.0 0.0 0.00 0.00 0.00 80 1013.6
20260509020705 11 227 0.0 0.0 0.00 0.00 0.00 77 1013.5
20260509020202 11 227 0.0 0.0 0.00 0.00 0.00 77 1013.4
20260509015700 11 227 0.0 0.0 0.00 0.00 0.00 78 1013.5
20260509015158 11 228 0.0 0.0 0.00 0.00 0.00 78 1013.4
20260509014654 11 228 0.0 0.0 0.00 0.00 0.00 78 1013.5
20260509014151 11 231 0.0 0.0 0.00 0.00 0.00 77 1013.5
20260509013648 11 230 0.0 0.0 0.00 0.00 0.00 77 1013.5
20260509013144 11 225 0.0 0.0 0.00 0.00 0.00 77 1013.5
20260509012640 11 223 0.0 0.0 0.00 0.00 0.00 76 1013.4
20260509012137 11 228 0.0 0.0 0.00 0.00 0.00 76 1013.2
20260509011635 11 245 0.0 0.0 0.00 0.00 0.00 76 1013.6
20260509011132 12 246 0.0 0.0 0.00 0.00 0.00 75 1013.4
20260509010630 12 224 0.0 0.0 0.00 0.00 0.00 72 1013.5
20260509010126 12 210 0.0 1.6 0.00 0.00 0.00 72 1013.4
20260509005624 12 214 1.6 1.6 0.00 0.00 0.00 72 1013.2
20260509005120 12 223 0.0 0.0 0.00 0.00 0.00 70 1013.4
20260509004616 12 223 0.0 0.0 0.00 0.00 0.00 69 1013.3
20260509004113 13 223 0.0 1.6 0.00 0.00 0.00 67 1013.1
20260509003612 13 224 0.0 0.0 0.00 0.00 0.00 65 1013.1
20260509003109 13 223 0.0 0.0 0.00 0.00 0.00 64 1013.1
20260509002606 13 218 0.0 0.0 0.00 0.00 0.00 65 1013.0
20260509002103 13 249 0.0 0.0 0.00 0.00 0.00 65 1013.2
20260509001601 13 249 0.0 0.0 0.00 0.00 0.00 66 1013.0
20260509001056 13 249 0.0 0.0 0.00 0.00 0.00 65 1013.4
20260509000555 13 246 0.0 0.0 0.00 0.00 0.00 64 1013.1
20260509000050 13 246 0.0 0.0 0.00 0.00 0.00 63 1013.1
20260508235548 13 275 0.0 0.0 0.00 0.00 0.00 64 1013.0
20260508235044 15 262 1.6 1.6 0.00 0.00 0.00 61 1012.9
20260508234542 15 267 1.6 1.6 0.00 0.00 0.00 60 1012.8
20260508234039 15 279 4.8 4.8 0.00 0.00 0.00 60 1013.0
20260508233538 16 250 0.0 0.0 0.00 0.00 0.00 58 1012.9
20260508233035 15 259 0.0 1.6 0.00 0.00 0.00 59 1012.9
20260508232532 15 268 3.2 3.2 0.00 0.00 0.00 61 1012.8
20260508232029 15 261 1.6 3.2 0.00 0.00 0.00 58 1012.6
20260508231527 15 244 3.2 4.8 0.00 0.00 0.00 59 1012.7
20260508231023 15 286 6.4 8.0 0.00 0.00 0.00 61 1012.6
20260508230520 15 291 9.7 11.3 0.00 0.00 0.00 59 1012.7
20260508230017 15 272 6.4 9.7 0.00 0.00 0.00 60 1012.9
20260508225514 15 271 3.2 3.2 0.00 0.00 0.00 59 1012.8
20260508225010 15 259 3.2 3.2 0.00 0.00 0.00 59 1012.8
20260508224509 16 235 9.7 17.7 0.00 0.00 0.00 57 1012.5
20260508224005 16 263 8.0 9.7 0.00 0.00 0.00 57 1012.6
20260508223504 16 262 1.6 1.6 0.00 0.00 0.00 59 1012.8
20260508223001 16 260 3.2 3.2 0.00 0.00 0.00 60 1012.7
20260508222458 15 274 3.2 3.2 0.00 0.00 0.00 60 1012.7
20260508221954 16 261 0.0 1.6 0.00 0.00 0.00 57 1012.6
20260508221450 16 254 3.2 3.2 0.00 0.00 0.00 59 1012.8
20260508220946 15 236 0.0 0.0 0.00 0.00 0.00 61 1013.0
20260508220443 15 259 3.2 3.2 0.00 0.00 0.00 63 1013.4
20260508215939 14 254 0.0 0.0 0.00 0.00 0.00 61 1013.2
20260508215437 14 256 1.6 3.2 0.00 0.00 0.00 64 1013.3
20260508214933 13 251 1.6 1.6 0.00 0.00 0.00 66 1013.2
20260508214431 13 252 3.2 3.2 0.00 0.00 0.00 64 1013.2
20260508213926 13 277 4.8 4.8 0.00 0.00 0.00 67 1013.3
20260508213424 13 250 3.2 3.2 0.00 0.00 0.00 65 1013.6
20260508212919 13 246 0.0 0.0 0.00 0.00 0.00 66 1013.2
20260508212417 13 249 1.6 3.2 0.00 0.00 0.00 65 1013.7
20260508211913 13 266 3.2 3.2 0.00 0.00 0.00 67 1013.9
20260508211408 13 268 1.6 3.2 0.00 0.00 0.00 66 1013.7
20260508210906 13 258 4.8 4.8 0.00 0.00 0.00 68 1013.6
20260508210402 13 258 3.2 3.2 0.00 0.00 0.00 66 1013.7
20260508205858 13 244 3.2 3.2 0.00 0.00 0.00 66 1013.6
20260508205355 13 252 1.6 1.6 0.00 0.00 0.00 67 1013.7
20260508204851 13 255 4.8 4.8 0.00 0.00 0.00 64 1013.8
20260508204349 13 294 4.8 4.8 0.00 0.00 0.00 65 1014.1
20260508203844 13 296 4.8 4.8 0.00 0.00 0.00 66 1014.1
20260508203341 13 285 4.8 4.8 0.00 0.00 0.00 64 1013.7
20260508202836 13 312 6.4 8.0 0.00 0.00 0.00 65 1014.1
20260508202334 13 273 4.8 8.0 0.00 0.00 0.00 64 1014.2
20260508201831 13 316 8.0 9.7 0.00 0.00 0.00 64 1014.1
20260508201328 13 262 3.2 3.2 0.00 0.00 0.00 65 1014.3
20260508200824 13 283 8.0 9.7 0.00 0.00 0.00 63 1014.1
20260508200321 13 282 4.8 4.8 0.00 0.00 0.00 64 1014.3
20260508195817 13 262 3.2 3.2 0.00 0.00 0.00 64 1014.4
20260508195314 13 321 9.7 11.3 0.00 0.00 0.00 65 1014.5
20260508194810 13 348 11.3 12.9 0.00 0.00 0.00 63 1014.4
20260508194308 13 288 4.8 9.7 0.00 0.00 0.00 63 1014.4
20260508193805 13 294 8.0 9.7 0.00 0.00 0.00 64 1014.5
20260508193301 13 276 6.4 8.0 0.00 0.00 0.00 65 1014.6
20260508192757 13 316 3.2 4.8 0.00 0.00 0.00 65 1014.4
20260508192254 13 267 6.4 8.0 0.00 0.00 0.00 64 1014.4
20260508191752 13 329 4.8 4.8 0.00 0.00 0.00 64 1014.8
20260508191249 13 335 11.3 14.5 0.00 0.00 0.00 62 1014.6
20260508190746 13 271 1.6 1.6 0.00 0.00 0.00 62 1014.7
20260508190242 13 267 6.4 8.0 0.00 0.00 0.00 61 1014.4